www.pogodaiklimat.ru
ПОГОДА в Айлипе
Время
и дата
17:56 27.06
18:56 27.06
19:11 27.06
19:51 27.06
19:56 27.06
20:35 27.06
20:56 27.06
21:08 27.06
21:19 27.06
21:56 27.06
22:49 27.06
22:52 27.06
22:56 27.06
23:15 27.06
23:56 27.06
00:56 28.06
01:56 28.06
02:56 28.06
03:56 28.06
04:56 28.06
05:56 28.06
06:56 28.06
07:56 28.06
08:56 28.06
09:56 28.06
10:56 28.06
11:56 28.06
12:56 28.06
13:56 28.06
14:56 28.06
15:56 28.06
16:56 28.06
17:56 28.06
18:56 28.06
19:56 28.06
20:56 28.06
21:56 28.06
22:56 28.06
23:56 28.06
00:56 29.06
01:56 29.06
02:56 29.06
03:56 29.06
04:56 29.06
05:56 29.06
06:56 29.06
07:56 29.06
08:56 29.06
Ветер
(напр.,м/с)
Видим. Явления Облачность Т
(С)
Тd
(С)
f
(%)
Тe
(С)
Тes
(С)
Комфортность P
(гПа)
Po
(гПа)
Тmin
(С)
Tmax
(С)
R
(мм)
R24
(мм)
S
(см)
ЮЗ 1 4 км слабый дождь, дымка 10/8 120 м
[Ac]
+21.7 +21.7 100 +28 +28 душно 1013.4 1009.8
З 1 4 км дымка 10/10 90 м +21.7 +21.7 100 +28 +28 душно 1014.1 1010.5 +21.7 +22.2 12.7
З 1 13 км 10/10 150 м +22.2 +21.7 97 +29 +29 очень
душно
1010.8
ЮЗ 1 11 км 10/5 150 м
[Ac]
+22.0 +22.0 100 +29 +29 очень
душно
1011.2
ЮЗ 1 4 км дымка 10/5 150 м
[Ac]
+22.2 +21.7 97 +29 +29 очень
душно
1014.9 1011.2
ЮЗ 1 5 км 10/8 150 м
[Ac]
+22.2 +21.7 97 +29 +29 очень
душно
1011.5
штиль 0 5 км дымка 10/10 150 м +21.7 +21.7 100 +28 +28 душно 1015.5 1011.9
ЮЗ 1 5 км дымка 10/10 120 м +21.7 +21.7 100 +28 +28 душно 1011.9
ЮЗ 1 1 км дымка 10/10 60 м +21.7 +21.7 100 +28 +28 душно 1011.9
штиль 0 800 м дымка 10/10 60 м +21.7 +21.7 100 +28 +28 душно 1015.5 1011.9
С 1 800 м дымка 10/10 120 м +21.7 +21.1 96 +28 +28 душно 1012.5
С 2 10 км дымка 10/10 180 м +22.0 +21.0 94 +28 +28 душно 1012.2
С 1 11 км 8/8 180 м +21.7 +21.1 96 +28 +28 душно 1016.0 1012.5
С 1 11 км 5/5 150 м +21.1 +20.6 97 +26 +26 душно 1012.5
СВ 1 16 км ясно +20.0 +20.0 100 +24 +24 комфорт 1016.0 1012.5
С 2 16 км ясно +18.9 +16.1 84 +20 +20 1016.8 1013.2 +18.9 +22.2
С 2 16 км ясно +17.2 +15.0 87 +17 +17 1017.1 1013.5
С 1 16 км 2/0 2100 м
[Ac]
+16.1 +13.3 83 +16 +16 1017.3 1013.5
С 1 16 км ясно +16.1 +12.8 81 +16 +16 1017.8 1014.2
С 1 16 км 8/8 1500 м
[Ac]
+16.7 +12.8 78 +16 +16 1018.7 1014.9
С 1 16 км 8/8 1650 м
[Ac Ci]
+17.2 +13.3 78 +18 +18 1019.3 1015.6
С 1 16 км 8/5 1800 м
[Ac Ci]
+19.4 +13.3 68 +21 +22 комфорт 1020.0 1016.2 +15.6 +19.4 13.7
С 2 16 км 8/8 1950 м
[Ac Ci]
+20.0 +12.8 63 +22 +22 комфорт 1020.6 1016.9
С 2 16 км 8/0 2100 м
[Ac Ci]
+20.6 +11.7 57 +23 +26 комфорт 1020.5 1016.9
С 2 16 км 8/0 2100 м
[Ac Ci]
+22.2 +11.7 51 +24 +30 комфорт 1020.7 1016.9
СЗ 2 16 км 5/2 1500 м
[Ac Ci]
+23.3 +11.1 46 +26 +33 жарко 1020.9 1017.3
С 2 16 км 5/2 1500 м
[Ac Ci]
+23.3 +10.6 45 +25 +32 комфорт 1021.1 1017.6
СЗ 2
{3}
16 км 5/5 1500 м
[Ac Ci]
+24.4 +11.7 45 +26 +33 жарко 1021.0 1017.3 +18.9 +24.4
СЗ 2 16 км 5/2 1800 м
[Ci]
+25.0 +11.1 42 +26 +35 жарко 1021.1 1017.3
СЗ 2 16 км 5/2 1950 м
[Ci]
+25.0 +11.1 42 +26 +33 жарко 1021.0 1017.3
С 2 16 км 5/5 1800 м
[Ci]
+24.4 +11.1 43 +26 +29 жарко 1020.6 1016.9
З 2 16 км 2/2 1800 м
[Ci]
+25.0 +10.0 39 +26 +30 жарко 1020.5 1016.9
ЮЗ 2 16 км 2/2 1800 м
[Ci]
+22.8 +12.2 51 +25 +27 комфорт 1020.7 1016.9
ЮЗ 2 16 км 5/2 1800 м
[Ci]
+21.7 +13.3 59 +24 +25 комфорт 1021.3 1017.6 +21.7 +25.6
ЮЗ 1 16 км 5/2 1800 м
[Ci]
+19.4 +13.3 68 +21 +21 комфорт 1021.7 1017.9
З 2 16 км 5/0 7500 м
[Ci]
+18.3 +14.4 78 +19 +19 1022.1 1018.3
З 1 16 км 5/0 7500 м
[Ci]
+18.3 +14.4 78 +19 +19 1022.3 1018.6
З 1 16 км 5/0 7500 м
[Ci]
+18.3 +14.4 78 +19 +19 1022.5 1018.9
ЮЗ 1 16 км ясно +17.2 +14.4 84 +18 +18 1022.7 1018.9
З 1 16 км ясно +17.2 +14.4 84 +18 +18 1022.7 1018.9 +16.7 +21.7
штиль 0 16 км ясно +16.1 +13.9 87 +16 +16 1022.7 1018.9
штиль 0 16 км ясно +16.7 +14.4 86 +17 +17 1022.8 1019.3
штиль 0 16 км ясно +16.7 +15.6 93 +17 +17 1022.9 1019.3
штиль 0 16 км 8/2 1800 м
[Ci]
+17.2 +15.6 90 +17 +17 1023.3 1019.6
ЮЗ 1 16 км 8/2 1800 м
[Ci]
+18.3 +16.1 87 +19 +19 1023.6 1020.0
штиль 0 16 км 8/2 1800 м
[Ci]
+22.2 +17.2 73 +27 +28 душно 1023.9 1020.3 +15.6 +22.2
ЮЗ 1 16 км 5/2 1500 м
[Ac Ci]
+23.9 +15.0 57 +27 +30 жарко 1024.0 1020.3
Ю 1 16 км 2/2 1500 м
[Ci]
+25.6 +13.3 46 +28 +33 жарко 1023.6 1020.0
Местоположение метеостанции Long Island Mac Arthur Airport: широта 40.7939 долгота -73.1017 высота над уровнем моря 30 м.
В архиве по умолчанию представлена погода в Айлипе за последние 1-2 суток. Обновление информации о фактической погоде в базе происходит ежечасно! Архивные данные за месяц целиком и за предыдущие месяцы Вы можете получить, выбрав интересующий диапазон дат из раскрывающегося списка и нажав кнопку "Ввод!".
Внимание! Архив погоды МЕТАР в базе сайта по станциям, не включенным в климатический монитор, хранится не более 60 дней. Нет смысла пытаться выбрать более раннюю дату.
*Определитесь, кто Вы:
Внимание! Время в таблицах - местное (без учета летнего времени). Для получения всемирного времени необходимо вычесть поправку, которая равна -5 ч.
Смотрите также архив погоды в соседних городах и на ближайших метеорологических станциях:
Партнеры нашего сайта:      
Пояснения к столбцам:
  • Ветер - указаны скорость ветра в м/с - средняя за 10 мин, порывы в срок и между сроками (в фигурных скобках) и направление, откуда дует ветер: С - северный,
  • СВ - северо-восточный, В - восточный, ЮВ - юго-восточный, Ю - южный, ЮЗ - юго-западный, З - западный, СЗ - северо-западный.
  • Видимость - горизонтальная дальность видимости в метрах или километрах. При видимости от 1 до 10 км при отсутствии осадков обычно наблюдается дымка, при ухудшении видимости до 1 км и менее - туман. В сухую погоду видимость может ухудшаться дымом, пылью или мглою.
  • Явления - указаны атмосферные явления, наблюдавшиеся в срок или в последний час перед сроком; фигурными скобками обозначены явления, наблюдавшиеся между сроками (за 1-3 часа до срока); квадратными скобками обозначены град или гололедные отложения с указанием их диаметра в мм.
  • Облачность - указаны через наклонную черту общая и нижняя облачность в баллах и высота нижней границы облаков в метрах; квадратными скобками обозначены формы облаков: Ci - перистые, Cs - перисто-слоистые, Cc - перисто-кучевые, Ac - высококучевые, As - высокослоистые, Sc - слоисто-кучевые, Ns - слоисто-дождевые, Cu - кучевые, Cb - кучево-дождевые. Подробнее классификацию облаков см. в Атласе облаков (PDF).
  • T - Температура воздуха - температура, измеренная на высоте 2 м над землей.
  • Td - Температура точки росы - температура, при понижении до которой содержащийся в воздухе водяной пар достигнет насыщения.
  • f - Относительная влажность воздуха - влажноcть воздуха, измеренная на высоте 2 м над землей.
  • Te - Эффективная температура - температура, которую ощущает одетый по сезону человек в тени. Характеристика душности погоды. При расчете учитывается влияние влажности воздуха и скорости ветра на теплоощущения человека.
  • Tes - Эффективная температура на солнце - температура, которую ощущает человек, с поправкой на солнечный нагрев. Характеристика знойности погоды. Зависит от высоты солнца над горизонтом, облачности и скорости ветра. Ночью, в пасмурную погоду, а также при ветре 12 м/с и более поправка равна нулю.
  • P - Атмосферное давление - приведенное к уровню моря атмосферное давление.
  • Po - Атмосферное давление - измеренное на уровне метеостанции атмосферное давление.
  • Tmin - Минимальная температура - минимум температуры воздуха на высоте 2 м над землей.
  • Tmax - Максимальная температура - максимум температуры воздуха на высоте 2 м над землей.
  • R - Количество осадков - Количество выпавших осадков за период времени, мм. При наведении курсора мыши на число - период времени, за который выпало указанное количество осадков.
  • R24 - Количество осадков - Количество выпавших осадков за 24 часа, мм.
  • S - Снежный покров - Высота снежного покрова, см. При наведении курсора мыши на число - состояние снежного покрова и степень покрытия местности в баллах.